User: anonymous   Login
Location: Unspecified
(0.0000°N, 0.0000°E)
Time: 11:39:30
(UTC+00:00)
Language:

YUBELEINY 2 - Orbit

View from above orbital plane
View from above orbital plane
View from above satellite
View from above satellite

Ground track
Ground track

The orbit data is extracted from the following two-line orbital elements,

1 38735U 12041C   22332.82961408  .00000045  00000-0  25181-3 0  9993
2 38735  82.4757 163.0262 0017639  14.7354 345.4235 12.42589473468932
Epoch (UTC): 28 November 2022 19:54:38
Eccentricity: 0.0017639
inclination: 82.4757°
perigee height: 1482 km
apogee height: 1509 km
right ascension of ascending node: 163.0262°
argument of perigee: 14.7354°
revolutions per day: 12.42589473
mean anomaly at epoch: 345.4235°
orbit number at epoch: 46893

The dashed part of the orbit path shows where the satellite is in the earth's shadow,  

DLR